Location: Rounton
(54.4000°N, 1.3500°W)
Time: 13:55:39
(UTC+00:00)

Transit 2A Rocket - Pass Details

Date: 08 December 2021
Orbit: 584 x 918 km, 66.7° (Epoch: 17 January)

Event Time Altitude Azimuth Distance (km) Brightness Sun altitude
Rises 15:32:54 0° 317° (NW) 3,567 8.5 0.1°
Reaches altitude 10° 15:35:35 10° 311° (NW) 2,613 7.9 -0.2°
Maximum altitude 15:41:17 43° 242° (WSW) 1,237 6.9 -0.8°
Drops below altitude 10° 15:46:42 10° 173° (S) 2,475 8.1 -1.4°
Sets 15:49:11 0° 167° (SSE) 3,361 8.7 -1.7°
